Location: Unspecified
(49.8670°N, 0.0000°E)
Time: 08:52:06
(UTC+00:00)

Courier 1B - All Passes

Search period start: 24 June 2019 00:00
Search period end: 04 July 2019 00:00
Orbit: 963 x 1209 km, 28.3° (Epoch: 23 June)

Date Brightness Start Highest point End Pass type
(mag) Time Alt. Az. Time Alt. Az. Time Alt. Az.
24 Jun - 18:39:37 10° SSW 18:42:00 12° S 18:44:26 10° SSE daylight
24 Jun - 20:32:14 10° SSW 20:34:37 12° S 20:37:01 10° S daylight
25 Jun - 17:47:28 10° S 17:48:35 10° SSE 17:49:43 10° SSE daylight
25 Jun - 19:38:33 10° SSW 19:41:09 12° S 19:43:47 10° SSE daylight
26 Jun - 18:45:11 10° SSW 18:47:42 12° S 18:50:15 10° SSE daylight
27 Jun - 17:52:09 10° SSW 17:54:16 11° S 17:56:24 10° SSE daylight
28 Jun - 16:59:43 10° S 17:00:52 10° S 17:02:01 10° SSE daylight
28 Jun - 18:51:53 10° SSW 18:53:24 11° S 18:54:56 10° S daylight
29 Jun - 17:58:14 10° SSW 17:59:59 11° S 18:01:45 10° SSE daylight
30 Jun - 17:05:00 10° SSW 17:06:34 11° S 17:08:11 10° SSE daylight
01 Jul - 16:12:20 10° S 16:13:12 10° S 16:14:03 10° SSE daylight
03 Jul - 16:18:38 10° S 16:18:56 10° S 16:19:13 10° S daylight
